Terminal Aerodrome Forecast
Issued by NWS Charleston, WV

Current Version | Previous Version | Graphics & Text | Print | Product List | Glossary On
Versions: 1 2 3 4 5 6 7 8 9 10 11 12 13 14 15 16 17 18 19 20 21 22
000
FTUS41 KRLX 291400 AAA
TAFHTS
TAF AMD
KHTS 291420Z 2914/3012 VRB03KT P6SM SCT050
     FM300300 VRB03KT P6SM BKN090
     FM301000 18005KT P6SM SCT060=

USA.gov is the U.S. government's official web portal to all federal, state and local government web resources and services.